| time (UTC) | temp F | wind direction | speed knots | gust knots | rain 1hr in | rain 24hr in | rain mn in | humidity % | barometer mb |
| 20260903220114 | 76 | 36 | 0.0 | 1.7 | 0.00 | 0.21 | 0.21 | 94 | 1015.4 |
| 20260903215114 | 76 | 164 | 0.9 | 2.6 | 0.00 | 0.21 | 0.21 | 93 | 1015.6 |
| 20260903214108 | 76 | 59 | 1.7 | 2.6 | 0.00 | 0.21 | 0.21 | 94 | 1015.3 |
| 20260903213105 | 75 | 352 | 0.9 | 2.6 | 0.02 | 0.21 | 0.21 | 96 | 1015.4 |
| 20260903212101 | 77 | 94 | 1.7 | 3.5 | 0.02 | 0.21 | 0.21 | 90 | 1015.2 |
| 20260903211059 | 77 | 80 | 1.7 | 4.3 | 0.00 | 0.20 | 0.20 | 88 | 1015.4 |
| 20260903210055 | 79 | 74 | 3.5 | 3.5 | 0.00 | 0.20 | 0.20 | 86 | 1015.3 |
| 20260903205055 | 81 | 278 | 2.6 | 3.5 | 0.00 | 0.20 | 0.20 | 82 | 1015.2 |
| 20260903204051 | 81 | 309 | 1.7 | 2.6 | 0.00 | 0.20 | 0.20 | 81 | 1015.2 |
| 20260903203047 | 81 | 221 | 1.7 | 8.7 | 0.00 | 0.20 | 0.20 | 81 | 1014.9 |
| 20260903202044 | 82 | 208 | 0.9 | 3.5 | 0.00 | 0.20 | 0.20 | 79 | 1015.6 |
| 20260903201044 | 82 | 218 | 1.7 | 4.3 | 0.00 | 0.20 | 0.20 | 80 | 1015.6 |
| 20260903200040 | 82 | 229 | 1.7 | 4.3 | 0.00 | 0.20 | 0.20 | 81 | 1015.7 |
| 20260903195037 | 82 | 217 | 1.7 | 5.2 | 0.00 | 0.20 | 0.20 | 80 | 1015.6 |
| 20260903194033 | 83 | 253 | 1.7 | 3.5 | 0.00 | 0.20 | 0.20 | 80 | 1015.6 |
| 20260903193031 | 79 | 261 | 1.7 | 2.6 | 0.00 | 0.20 | 0.20 | 82 | 1015.7 |
| 20260903192028 | 80 | 260 | 0.9 | 2.6 | 0.00 | 0.20 | 0.20 | 84 | 1015.9 |
| 20260903191024 | 82 | 277 | 1.7 | 4.3 | 0.00 | 0.20 | 0.20 | 77 | 1016.3 |
| 20260903190023 | 80 | 304 | 1.7 | 4.3 | 0.00 | 0.20 | 0.20 | 78 | 1015.9 |
| 20260903185020 | 83 | 205 | 1.7 | 5.2 | 0.00 | 0.20 | 0.20 | 78 | 1016.0 |
| 20260903184017 | 81 | 282 | 1.7 | 3.5 | 0.00 | 0.20 | 0.20 | 80 | 1016.5 |
| 20260903183017 | 81 | 229 | 2.6 | 4.3 | 0.00 | 0.20 | 0.20 | 82 | 1016.7 |
| 20260903182013 | 80 | 220 | 4.3 | 8.7 | 0.00 | 0.20 | 0.20 | 82 | 1016.5 |
| 20260903181011 | 79 | 265 | 0.9 | 4.3 | 0.00 | 0.20 | 0.20 | 83 | 1016.5 |
| 20260903180005 | 79 | 202 | 1.7 | 5.2 | 0.00 | 0.20 | 0.20 | 83 | 1016.7 |
| 20260903175004 | 78 | 277 | 1.7 | 5.2 | 0.00 | 0.20 | 0.20 | 82 | 1016.8 |
| 20260903173959 | 79 | 213 | 1.7 | 7.0 | 0.00 | 0.20 | 0.20 | 84 | 1016.9 |
| 20260903172956 | 78 | 220 | 3.5 | 5.2 | 0.00 | 0.20 | 0.20 | 83 | 1016.6 |
| 20260903171952 | 79 | 275 | 1.7 | 4.3 | 0.00 | 0.20 | 0.20 | 81 | 1016.8 |
| 20260903170948 | 78 | 227 | 7.0 | 7.8 | 0.00 | 0.20 | 0.20 | 84 | 1016.7 |
| 20260903165948 | 78 | 263 | 0.9 | 3.5 | 0.00 | 0.20 | 0.20 | 83 | 1017.1 |
| 20260903164942 | 77 | 204 | 4.3 | 4.3 | 0.00 | 0.20 | 0.20 | 83 | 1017.2 |
| 20260903163942 | 77 | 225 | 0.9 | 4.3 | 0.00 | 0.20 | 0.20 | 84 | 1017.0 |
| 20260903162941 | 78 | 205 | 6.1 | 6.1 | 0.00 | 0.20 | 0.20 | 82 | 1017.0 |
| 20260903161938 | 76 | 203 | 5.2 | 6.1 | 0.00 | 0.20 | 0.20 | 85 | 1017.3 |
| 20260903160935 | 76 | 201 | 6.1 | 6.1 | 0.00 | 0.20 | 0.20 | 83 | 1017.5 |
| 20260903155933 | 76 | 196 | 1.7 | 6.1 | 0.00 | 0.20 | 0.20 | 84 | 1017.4 |
| 20260903154929 | 75 | 216 | 3.5 | 7.8 | 0.00 | 0.20 | 0.20 | 88 | 1017.8 |
| 20260903153926 | 75 | 207 | 0.9 | 5.2 | 0.00 | 0.20 | 0.20 | 87 | 1017.8 |
| 20260903152924 | 74 | 215 | 3.5 | 6.1 | 0.00 | 0.20 | 0.20 | 87 | 1017.9 |
| 20260903151920 | 74 | 228 | 1.7 | 6.1 | 0.00 | 0.20 | 0.20 | 88 | 1017.7 |
| 20260903150915 | 73 | 203 | 2.6 | 5.2 | 0.00 | 0.20 | 0.20 | 89 | 1017.8 |
| 20260903145911 | 73 | 232 | 0.0 | 5.2 | 0.00 | 0.20 | 0.20 | 92 | 1017.7 |
| 20260903144912 | 73 | 184 | 1.7 | 5.2 | 0.00 | 0.20 | 0.20 | 91 | 1017.7 |
| 20260903143908 | 71 | 194 | 3.5 | 7.0 | 0.00 | 0.20 | 0.20 | 92 | 1017.7 |
| 20260903142905 | 71 | 247 | 4.3 | 5.2 | 0.00 | 0.20 | 0.20 | 95 | 1017.4 |
| 20260903141902 | 69 | 234 | 3.5 | 8.7 | 0.00 | 0.20 | 0.20 | 95 | 1017.7 |
| 20260903140859 | 69 | 256 | 2.6 | 10.4 | 0.00 | 0.20 | 0.20 | 97 | 1017.8 |
| 20260903135855 | 68 | 31 | 1.7 | 13.0 | 0.00 | 0.20 | 0.20 | 97 | 1017.7 |
| 20260903134855 | 67 | 255 | 1.7 | 8.7 | 0.00 | 0.20 | 0.20 | 99 | 1017.7 |
| 20260903133854 | 67 | 232 | 5.2 | 7.0 | 0.00 | 0.20 | 0.20 | 99 | 1017.9 |
| 20260903132851 | 66 | 203 | 9.6 | 9.6 | 0.00 | 0.20 | 0.20 | 99 | 1018.1 |
| 20260903131847 | 66 | 202 | 2.6 | 11.3 | 0.00 | 0.20 | 0.20 | 99 | 1017.9 |
| 20260903130846 | 66 | 219 | 2.6 | 8.7 | 0.00 | 0.20 | 0.20 | 99 | 1017.8 |
| 20260903125845 | 66 | 223 | 3.5 | 7.0 | 0.00 | 0.20 | 0.20 | 99 | 1017.7 |
| 20260903124845 | 66 | 201 | 3.5 | 10.4 | 0.00 | 0.20 | 0.20 | 99 | 1017.8 |
| 20260903123846 | 66 | 208 | 7.8 | 10.4 | 0.00 | 0.20 | 0.20 | 99 | 1017.9 |
| 20260903122845 | 66 | 233 | 4.3 | 7.8 | 0.00 | 0.20 | 0.20 | 99 | 1017.9 |
| 20260903121844 | 65 | 191 | 1.7 | 4.3 | 0.00 | 0.20 | 0.20 | 99 | 1017.6 |
| 20260903120841 | 65 | 218 | 2.6 | 7.0 | 0.00 | 0.20 | 0.20 | 99 | 1017.7 |
| 20260903115838 | 65 | 225 | 6.1 | 8.7 | 0.00 | 0.20 | 0.20 | 99 | 1017.6 |
| 20260903114833 | 65 | 212 | 3.5 | 7.8 | 0.00 | 0.20 | 0.20 | 99 | 1017.3 |
| 20260903113831 | 65 | 166 | 1.7 | 7.8 | 0.00 | 0.20 | 0.20 | 99 | 1017.1 |
| 20260903112828 | 64 | 148 | 0.0 | 7.8 | 0.00 | 0.20 | 0.20 | 99 | 1016.9 |
| 20260903111822 | 64 | 204 | 3.5 | 4.3 | 0.00 | 0.20 | 0.20 | 99 | 1017.0 |
| 20260903110819 | 65 | 171 | 0.9 | 4.3 | 0.00 | 0.20 | 0.20 | 99 | 1016.7 |
| 20260903105814 | 65 | 177 | 1.7 | 5.2 | 0.00 | 0.20 | 0.20 | 99 | 1016.5 |
| 20260903104815 | 65 | 157 | 1.7 | 7.8 | 0.00 | 0.20 | 0.20 | 99 | 1016.4 |
| 20260903103812 | 65 | 212 | 4.3 | 6.1 | 0.00 | 0.20 | 0.20 | 99 | 1016.3 |
| 20260903102809 | 65 | 206 | 1.7 | 5.2 | 0.02 | 0.20 | 0.20 | 99 | 1016.1 |
| 20260903101808 | 65 | 183 | 0.0 | 7.8 | 0.07 | 0.20 | 0.20 | 99 | 1016.6 |
| 20260903100805 | 65 | 194 | 5.2 | 13.9 | 0.07 | 0.19 | 0.19 | 99 | 1017.4 |
| 20260903095802 | 65 | 211 | 4.3 | 9.6 | 0.12 | 0.17 | 0.17 | 99 | 1017.8 |
| 20260903094758 | 65 | 190 | 2.6 | 9.6 | 0.07 | 0.15 | 0.15 | 99 | 1017.6 |
| 20260903093754 | 65 | 220 | 2.6 | 6.1 | 0.00 | 0.14 | 0.14 | 99 | 1018.1 |
| 20260903092749 | 65 | 203 | 3.5 | 13.9 | 0.00 | 0.14 | 0.14 | 99 | 1017.4 |
| 20260903091749 | 65 | 200 | 1.7 | 13.0 | 0.00 | 0.14 | 0.14 | 99 | 1017.6 |
| 20260903090745 | 65 | 209 | 7.0 | 10.4 | 0.00 | 0.14 | 0.14 | 99 | 1017.3 |
| 20260903085743 | 65 | 244 | 4.3 | 12.2 | 0.02 | 0.14 | 0.14 | 99 | 1017.4 |
| 20260903084742 | 65 | 142 | 0.9 | 7.0 | 0.00 | 0.13 | 0.13 | 99 | 1017.3 |
| 20260903083738 | 65 | 205 | 7.8 | 11.3 | 0.02 | 0.13 | 0.13 | 99 | 1017.0 |
| 20260903082737 | 66 | 211 | 7.8 | 14.8 | 0.00 | 0.13 | 0.13 | 99 | 1016.6 |
| 20260903081733 | 66 | 220 | 7.0 | 14.8 | 0.00 | 0.13 | 0.13 | 99 | 1016.6 |
| 20260903080731 | 66 | 208 | 0.0 | 12.2 | 0.00 | 0.13 | 0.13 | 99 | 1016.4 |
| 20260903075728 | 66 | 212 | 3.5 | 13.0 | 0.00 | 0.13 | 0.13 | 99 | 1016.6 |
| 20260903074727 | 66 | 221 | 7.0 | 12.2 | 0.02 | 0.13 | 0.13 | 99 | 1017.2 |
| 20260903073724 | 66 | 210 | 7.0 | 10.4 | 0.02 | 0.13 | 0.13 | 99 | 1017.7 |
| 20260903072720 | 66 | 206 | 1.7 | 5.2 | 0.02 | 0.12 | 0.12 | 99 | 1017.7 |
| 20260903071719 | 66 | 223 | 7.8 | 9.6 | 0.00 | 0.12 | 0.12 | 99 | 1017.5 |
| 20260903070714 | 66 | 187 | 1.7 | 9.6 | 0.00 | 0.12 | 0.12 | 99 | 1017.2 |
| 20260903065710 | 66 | 213 | 7.0 | 12.2 | 0.00 | 0.12 | 0.12 | 99 | 1017.1 |
| 20260903064709 | 65 | 217 | 8.7 | 14.8 | 0.00 | 0.12 | 0.12 | 99 | 1017.1 |
| 20260903063706 | 65 | 190 | 2.6 | 10.4 | 0.00 | 0.12 | 0.12 | 99 | 1017.0 |
| 20260903062703 | 65 | 207 | 2.6 | 7.0 | 0.00 | 0.12 | 0.12 | 99 | 1017.3 |
| 20260903061659 | 64 | 176 | 0.9 | 8.7 | 0.02 | 0.12 | 0.12 | 99 | 1017.3 |
| 20260903060659 | 64 | 186 | 3.5 | 11.3 | 0.12 | 0.11 | 0.11 | 99 | 1017.2 |
| 20260903055657 | 63 | 190 | 1.7 | 3.5 | 0.17 | 0.09 | 0.09 | 99 | 1017.9 |
| 20260903054656 | 64 | 214 | 3.5 | 4.3 | 0.07 | 0.06 | 0.06 | 99 | 1018.9 |
| 20260903053654 | 64 | 136 | 0.9 | 4.3 | 0.02 | 0.05 | 0.05 | 99 | 1019.7 |
| 20260903052651 | 63 | 213 | 2.6 | 2.6 | 0.19 | 0.05 | 0.05 | 99 | 1018.7 |
| 20260903051647 | 63 | 246 | 0.0 | 1.7 | 0.00 | 0.02 | 0.02 | 99 | 1019.0 |
| 20260903050643 | 63 | 208 | 2.6 | 3.5 | 0.00 | 0.02 | 0.02 | 99 | 1018.6 |
| 20260903045643 | 63 | 199 | 1.7 | 2.6 | 0.00 | 0.02 | 0.02 | 99 | 1019.0 |
| 20260903044641 | 63 | 199 | 1.7 | 2.6 | 0.02 | 0.02 | 0.02 | 99 | 1019.5 |
| 20260903043640 | 63 | 158 | 0.0 | 2.6 | 0.00 | 0.01 | 0.01 | 99 | 1019.2 |
| 20260903042638 | 63 | 145 | 2.6 | 3.5 | 0.02 | 0.01 | 0.01 | 99 | 1019.1 |
| 20260903041635 | 64 | 171 | 0.0 | 0.9 | 0.05 | 0.01 | 0.01 | 99 | 1020.1 |
| 20260903040630 | 64 | 228 | 0.0 | 2.6 | 0.00 | 0.00 | 0.00 | 99 | 1020.5 |
| 20260903035627 | 64 | 293 | 0.0 | 0.9 | 0.00 | 0.35 | 0.35 | 99 | 1020.5 |
| 20260903034624 | 63 | 203 | 3.5 | 4.3 | 0.00 | 0.35 | 0.35 | 99 | 1019.6 |
| 20260903033620 | 63 | 185 | 0.0 | 1.7 | 0.00 | 0.35 | 0.35 | 99 | 1019.5 |
| 20260903032615 | 64 | 142 | 0.0 | 4.3 | 0.00 | 0.35 | 0.35 | 99 | 1019.5 |
| 20260903031611 | 64 | 211 | 3.5 | 4.3 | 0.02 | 0.35 | 0.35 | 99 | 1020.5 |
| 20260903030608 | 64 | 193 | 1.7 | 11.3 | 0.05 | 0.35 | 0.35 | 99 | 1020.6 |
| 20260903025604 | 63 | 152 | 2.6 | 6.1 | 0.07 | 0.35 | 0.35 | 99 | 1020.9 |
| 20260903024600 | 63 | 152 | 2.6 | 6.1 | 0.07 | 0.35 | 0.35 | 99 | 1020.9 |
| 20260903023556 | 63 | 172 | 0.9 | 1.7 | 0.14 | 0.34 | 0.34 | 99 | 1021.3 |
| 20260903022556 | 63 | 107 | 2.6 | 6.1 | 0.28 | 0.31 | 0.31 | 99 | 1021.7 |
| 20260903021556 | 69 | 219 | 3.5 | 5.2 | 0.02 | 0.07 | 0.07 | 99 | 1021.1 |
| 20260903020552 | 69 | 231 | 10.4 | 12.2 | 0.00 | 0.07 | 0.07 | 99 | 1018.9 |
| 20260903015548 | 69 | 231 | 10.4 | 12.2 | 0.00 | 0.07 | 0.07 | 99 | 1018.9 |
| 20260903014548 | 69 | 189 | 1.7 | 13.9 | 0.00 | 0.07 | 0.07 | 99 | 1018.8 |
| 20260903013543 | 69 | 156 | 1.7 | 4.3 | 0.00 | 0.07 | 0.07 | 99 | 1019.2 |
| 20260903012543 | 69 | 164 | 1.7 | 5.2 | 0.00 | 0.07 | 0.07 | 99 | 1019.0 |
| 20260903011542 | 69 | 207 | 3.5 | 13.0 | 0.00 | 0.07 | 0.07 | 99 | 1018.8 |
| 20260903010538 | 70 | 152 | 2.6 | 4.3 | 0.00 | 0.07 | 0.07 | 99 | 1018.8 |
| 20260903005537 | 70 | 217 | 3.5 | 6.1 | 0.00 | 0.07 | 0.07 | 99 | 1019.1 |
| 20260903004532 | 70 | 211 | 7.8 | 7.8 | 0.00 | 0.07 | 0.07 | 99 | 1018.5 |
| 20260903003529 | 70 | 185 | 2.6 | 4.3 | 0.00 | 0.07 | 0.07 | 99 | 1017.7 |
| 20260903002524 | 70 | 196 | 1.7 | 5.2 | 0.00 | 0.07 | 0.07 | 99 | 1018.0 |
| 20260903001519 | 70 | 182 | 0.0 | 1.7 | 0.00 | 0.07 | 0.07 | 99 | 1018.5 |
| 20260903000514 | 70 | 225 | 0.9 | 5.2 | 0.00 | 0.07 | 0.07 | 99 | 1018.7 |
| 20260902235513 | 70 | 201 | 2.6 | 7.8 | 0.00 | 0.07 | 0.07 | 99 | 1018.5 |
| 20260902234509 | 70 | 143 | 2.6 | 4.3 | 0.00 | 0.07 | 0.07 | 98 | 1018.5 |
| 20260902233507 | 70 | 206 | 5.2 | 7.0 | 0.00 | 0.07 | 0.07 | 98 | 1018.9 |
| 20260902232507 | 71 | 196 | 1.7 | 4.3 | 0.00 | 0.07 | 0.07 | 98 | 1018.6 |
| 20260902231502 | 71 | 213 | 3.5 | 4.3 | 0.00 | 0.07 | 0.07 | 98 | 1018.5 |
| 20260902230457 | 71 | 166 | 1.7 | 5.2 | 0.00 | 0.07 | 0.07 | 97 | 1017.8 |
| 20260902225457 | 71 | 194 | 2.6 | 3.5 | 0.00 | 0.07 | 0.07 | 97 | 1018.0 |
| 20260902224456 | 72 | 201 | 5.2 | 9.6 | 0.00 | 0.07 | 0.07 | 96 | 1018.4 |
| 20260902223454 | 72 | 210 | 7.0 | 7.0 | 0.00 | 0.07 | 0.07 | 96 | 1018.1 |
| 20260902222452 | 72 | 197 | 1.7 | 4.3 | 0.00 | 0.07 | 0.07 | 96 | 1018.3 |
| 20260902221451 | 72 | 209 | 5.2 | 7.8 | 0.00 | 0.07 | 0.07 | 95 | 1018.4 |